Weather History for West Palm Beach, FL

Change the Weather History Date:

Wednesday, December 4, 2013

  Actual Average Record
Temperature  
Mean Temperature 74 °F 70 °F  
Max Temperature 83 °F 78 °F 89 °F (1942)
Min Temperature 64 °F 62 °F 42 °F (1974)
Degree Days  
Heating Degree Days 0 1  
Month to date heating degree days 0 4  
Since 1 July heating degree days 4 16  
Cooling Degree Days 9 6  
Month to date cooling degree days 22 24  
Year to date cooling degree days 4223 3890  
Growing Degree Days 16 (Base 50)    
Moisture  
Dew Point 63 °F    
Average Humidity 74    
Maximum Humidity 93    
Minimum Humidity 54    
Precipitation  
Precipitation 0.00 in 0.11 in 1.17 in (1896)
Month to date precipitation 3.01 0.45  
Year to date precipitation 63.65 59.40  
Snow  
Snow 0.00 in - - ()
Month to date snowfall 0.0  
Since 1 July snowfall 0.0  
Snow Depth 0.00 in    
Sea Level Pressure  
Sea Level Pressure 30.05 in    
Wind  
Wind Speed 4 mph (SSE)    
Max Wind Speed 15 mph    
Max Gust Speed 18 mph    
Visibility 10 miles    
Events      
T = Trace of Precipitation, MM = Missing Value Source: NWS Daily Summary

Daily Weather History Graph

Daily Weather History Graph

Search for Another Location

Airport:

Trip Planner

Search our weather history database for the weather conditions in past years. The results will help you decide how hot, cold, wet, or windy it might be!

Date:

Astronomy

Dec. 04, 2013 Rise Set
Actual Time 6:54 AM EST 5:27 PM EST
Civil Twilight 6:28 AM EST 5:52 PM EST
Nautical Twilight 6:00 AM EST 6:21 PM EST
Astronomical Twilight 5:32 AM EST 6:49 PM EST
Moon 8:24 AM EST (12/4) 7:31 PM EST (12/4)
Length of Visible Light 11h 23m
Length of Day
10h 33m
Waxing Crescent, 4% of the Moon is Illuminated
Dec 4
Waxing Crescent
Dec 9
First Quarter
Dec 17
Full
Dec 25
Last Quarter
Jan 1
New

Hourly Weather History & Observations

Time (EST) Temp. Heat Index Dew Point Humidity Pressure Visibility Wind Dir Wind Speed Gust Speed Precip Events Conditions
12:53 AM 69.1 °F - 63.0 °F 81% 29.99 in 10.0 mi Calm Calm - N/A   Scattered Clouds
1:53 AM 66.9 °F - 63.0 °F 87% 30.00 in 10.0 mi Calm Calm - N/A   Scattered Clouds
2:53 AM 66.9 °F - 63.0 °F 87% 29.99 in 10.0 mi Calm Calm - N/A   Scattered Clouds
3:53 AM 66.9 °F - 63.0 °F 87% 29.99 in 10.0 mi Calm Calm - N/A   Scattered Clouds
4:53 AM 66.0 °F - 63.0 °F 90% 30.00 in 10.0 mi Calm Calm - N/A   Mostly Cloudy
5:53 AM 64.9 °F - 62.1 °F 90% 30.02 in 10.0 mi Calm Calm - N/A   Scattered Clouds
6:53 AM 66.0 °F - 62.1 °F 87% 30.04 in 10.0 mi Calm Calm - N/A   Scattered Clouds
7:53 AM 68.0 °F - 64.9 °F 90% 30.06 in 10.0 mi Calm Calm - N/A   Mostly Cloudy
8:53 AM 75.0 °F - 66.0 °F 73% 30.07 in 10.0 mi SSW 4.6 mph - N/A   Mostly Cloudy
9:53 AM 78.1 °F - 64.9 °F 64% 30.09 in 10.0 mi SW 6.9 mph - N/A   Mostly Cloudy
10:53 AM 81.0 °F 82.7 °F 64.9 °F 58% 30.09 in 10.0 mi South 9.2 mph - N/A   Mostly Cloudy
11:53 AM 80.1 °F 81.9 °F 64.9 °F 60% 30.07 in 10.0 mi SSE 8.1 mph - N/A   Mostly Cloudy
12:53 PM 82.0 °F 83.4 °F 64.0 °F 54% 30.04 in 10.0 mi South 9.2 mph - N/A   Mostly Cloudy
1:53 PM 81.0 °F 82.2 °F 63.0 °F 54% 30.03 in 10.0 mi South 11.5 mph - N/A   Mostly Cloudy
2:53 PM 81.0 °F 82.2 °F 63.0 °F 54% 30.02 in 10.0 mi SSE 9.2 mph - N/A   Mostly Cloudy
3:53 PM 80.1 °F 81.5 °F 63.0 °F 56% 30.03 in 10.0 mi SE 11.5 mph - N/A   Scattered Clouds
4:53 PM 78.1 °F - 63.0 °F 60% 30.04 in 10.0 mi SSE 6.9 mph - N/A   Scattered Clouds
5:53 PM 75.9 °F - 63.0 °F 64% 30.05 in 10.0 mi SE 5.8 mph - N/A   Scattered Clouds
6:53 PM 75.0 °F - 63.0 °F 66% 30.07 in 10.0 mi SE 5.8 mph - N/A   Scattered Clouds
7:53 PM 73.9 °F - 64.0 °F 71% 30.08 in 10.0 mi SSE 3.5 mph - N/A   Scattered Clouds
8:53 PM 73.9 °F - 64.0 °F 71% 30.09 in 10.0 mi SSE 3.5 mph - N/A   Partly Cloudy
9:53 PM 72.0 °F - 63.0 °F 73% 30.09 in 10.0 mi Calm Calm - N/A   Partly Cloudy
10:53 PM 72.0 °F - 64.0 °F 76% 30.10 in 10.0 mi SE 4.6 mph - N/A   Partly Cloudy
11:53 PM 73.0 °F - 64.0 °F 73% 30.09 in 10.0 mi SE 3.5 mph - N/A   Scattered Clouds